EN

Hourly Weather Bolshie Karmaly

Today, 23 October, Friday

Time Temperature Precipitation Wind Pressure Humidity
00:00 +1°C° 0 mm 1 mps 752 mmHg 77%
01:00 -1°C° 0 mm 2 mps 752 mmHg 77%
02:00 -1°C° 0 mm 2 mps 752 mmHg 77%
03:00 -1°C° 0 mm 3 mps 752 mmHg 78%
04:00 -2°C° 0 mm 4 mps 751 mmHg 78%
05:00 -1°C° 0 mm 4 mps 751 mmHg 78%
06:00 -1°C° 0 mm 5 mps 750 mmHg 79%
07:00 -2°C° 0 mm 6 mps 750 mmHg 81%
08:00 -1°C° 0 mm 6 mps 749 mmHg 84%
09:00 -1°C° 0 mm 7 mps 749 mmHg 86%
10:00 -1°C° 0.3 mm 7 mps 748 mmHg 89%
11:00 -1°C° 0.3 mm 7 mps 748 mmHg 92%
12:00 -1°C° 0.3 mm 7 mps 747 mmHg 95%
13:00 0°C° 0.5 mm 7 mps 746 mmHg 95%
14:00 0°C° 0.5 mm 7 mps 746 mmHg 95%
15:00 +2°C° 0.5 mm 7 mps 745 mmHg 94%
16:00 +2°C° 0.5 mm 7 mps 745 mmHg 95%
17:00 +2°C° 0.5 mm 7 mps 744 mmHg 95%
18:00 +2°C° 0.5 mm 7 mps 744 mmHg 96%
19:00 +3°C° 0.6 mm 6 mps 743 mmHg 96%
20:00 +3°C° 0.6 mm 6 mps 743 mmHg 96%
21:00 +5°C° 0.6 mm 5 mps 742 mmHg 97%
22:00 +5°C° 0.2 mm 5 mps 742 mmHg 96%
23:00 +6°C° 0.2 mm 5 mps 742 mmHg 95%

Tomorrow, 24 October, Saturday

Time Temperature Precipitation Wind Pressure Humidity
00:00 +6°C° 0.2 mm 5 mps 742 mmHg 94%
01:00 +6°C° 0.7 mm 5 mps 741 mmHg 94%
02:00 +7°C° 0.7 mm 6 mps 741 mmHg 95%
03:00 +7°C° 0.7 mm 6 mps 741 mmHg 96%
04:00 +7°C° 0.9 mm 6 mps 740 mmHg 96%
05:00 +7°C° 0.9 mm 6 mps 739 mmHg 96%
06:00 +7°C° 0.9 mm 5 mps 739 mmHg 96%
07:00 +7°C° 0.3 mm 5 mps 739 mmHg 96%
08:00 +7°C° 0.3 mm 5 mps 739 mmHg 95%
09:00 +8°C° 0.3 mm 5 mps 739 mmHg 95%
10:00 +8°C° 0.4 mm 5 mps 739 mmHg 90%
11:00 +9°C° 0.4 mm 6 mps 740 mmHg 86%
12:00 +10°C° 0.4 mm 7 mps 740 mmHg 81%
13:00 +9°C° 0.1 mm 6 mps 741 mmHg 82%
14:00 +9°C° 0.1 mm 6 mps 742 mmHg 83%
15:00 +9°C° 0.1 mm 6 mps 742 mmHg 84%
16:00 +8°C° 0 mm 6 mps 743 mmHg 84%
17:00 +8°C° 0 mm 6 mps 743 mmHg 85%
18:00 +7°C° 0 mm 5 mps 743 mmHg 85%
19:00 +7°C° 0 mm 5 mps 744 mmHg 84%
20:00 +7°C° 0 mm 5 mps 744 mmHg 83%
21:00 +7°C° 0 mm 5 mps 745 mmHg 82%
22:00 +7°C° 0 mm 5 mps 745 mmHg 83%
23:00 +6°C° 0 mm 4 mps 745 mmHg 84%

Day after tomorrow, 25 October, Sunday

Time Temperature Precipitation Wind Pressure Humidity
00:00 +6°C° 0 mm 4 mps 745 mmHg 85%
01:00 +5°C° 0 mm 4 mps 746 mmHg 87%
02:00 +4°C° 0 mm 4 mps 746 mmHg 88%
03:00 +4°C° 0 mm 4 mps 746 mmHg 89%
04:00 +3°C° 0 mm 3 mps 746 mmHg 88%
05:00 +3°C° 0 mm 3 mps 746 mmHg 88%
06:00 +4°C° 0 mm 2 mps 746 mmHg 87%
07:00 +4°C° 0 mm 2 mps 746 mmHg 83%
08:00 +6°C° 0 mm 1 mps 746 mmHg 78%
09:00 +7°C° 0 mm 1 mps 746 mmHg 74%
10:00 +7°C° 0 mm 1 mps 746 mmHg 73%
11:00 +6°C° 0 mm 2 mps 746 mmHg 73%
12:00 +7°C° 0 mm 3 mps 746 mmHg 73%
13:00 +7°C° 0.3 mm 2 mps 746 mmHg 77%
14:00 +6°C° 0.3 mm 2 mps 745 mmHg 82%
15:00 +7°C° 0.3 mm 1 mps 745 mmHg 87%
16:00 +7°C° 0.5 mm 1 mps 745 mmHg 89%
17:00 +7°C° 0.5 mm 1 mps 745 mmHg 91%
18:00 +7°C° 0.5 mm 1 mps 745 mmHg 93%
19:00 +6°C° 0.1 mm 2 mps 745 mmHg 92%
20:00 +4°C° 0.1 mm 3 mps 745 mmHg 91%
21:00 +4°C° 0.1 mm 4 mps 745 mmHg 89%
22:00 +3°C° 0 mm 5 mps 745 mmHg 90%
23:00 +2°C° 0 mm 5 mps 746 mmHg 91%

, 26 October, Monday

Time Temperature Precipitation Wind Pressure Humidity
00:00 +1°C° 0 mm 6 mps 746 mmHg 91%
01:00 +1°C° 0 mm 6 mps 746 mmHg 92%
02:00 -1°C° 0 mm 6 mps 747 mmHg 92%
03:00 -1°C° 0 mm 6 mps 747 mmHg 92%
04:00 -1°C° 0 mm 7 mps 747 mmHg 90%
05:00 -1°C° 0 mm 7 mps 748 mmHg 87%
06:00 -1°C° 0 mm 7 mps 748 mmHg 85%
07:00 -1°C° 0 mm 7 mps 749 mmHg 82%
08:00 -1°C° 0 mm 7 mps 749 mmHg 78%
09:00 -1°C° 0 mm 7 mps 749 mmHg 75%
10:00 -1°C° 0 mm 7 mps 750 mmHg 73%
11:00 -1°C° 0 mm 7 mps 750 mmHg 71%
12:00 0°C° 0 mm 7 mps 751 mmHg 70%
13:00 0°C° 0.1 mm 8 mps 751 mmHg 72%
14:00 0°C° 0.1 mm 8 mps 752 mmHg 75%
15:00 0°C° 0.1 mm 9 mps 752 mmHg 77%
16:00 -1°C° 0 mm 8 mps 753 mmHg 77%
17:00 -2°C° 0 mm 7 mps 754 mmHg 76%
18:00 -3°C° 0 mm 7 mps 755 mmHg 76%
19:00 -3°C° 0 mm 7 mps 755 mmHg 77%
20:00 -3°C° 0 mm 6 mps 756 mmHg 79%
21:00 -4°C° 0 mm 6 mps 757 mmHg 80%
22:00 -4°C° 0 mm 6 mps 757 mmHg 81%
23:00 -4°C° 0 mm 5 mps 757 mmHg 81%

26 October, Monday

Time Temperature Precipitation Wind Pressure Humidity
00:00 +1°C° 0 mm 6 mps 746 mmHg 91%
01:00 +1°C° 0 mm 6 mps 746 mmHg 92%
02:00 -1°C° 0 mm 6 mps 747 mmHg 92%
03:00 -1°C° 0 mm 6 mps 747 mmHg 92%
04:00 -1°C° 0 mm 7 mps 747 mmHg 90%
05:00 -1°C° 0 mm 7 mps 748 mmHg 87%
06:00 -1°C° 0 mm 7 mps 748 mmHg 85%
07:00 -1°C° 0 mm 7 mps 749 mmHg 82%
08:00 -1°C° 0 mm 7 mps 749 mmHg 78%
09:00 -1°C° 0 mm 7 mps 749 mmHg 75%
10:00 -1°C° 0 mm 7 mps 750 mmHg 73%
11:00 -1°C° 0 mm 7 mps 750 mmHg 71%
12:00 0°C° 0 mm 7 mps 751 mmHg 70%
13:00 0°C° 0.1 mm 8 mps 751 mmHg 72%
14:00 0°C° 0.1 mm 8 mps 752 mmHg 75%
15:00 0°C° 0.1 mm 9 mps 752 mmHg 77%
16:00 -1°C° 0 mm 8 mps 753 mmHg 77%
17:00 -2°C° 0 mm 7 mps 754 mmHg 76%
18:00 -3°C° 0 mm 7 mps 755 mmHg 76%
19:00 -3°C° 0 mm 7 mps 755 mmHg 77%
20:00 -3°C° 0 mm 6 mps 756 mmHg 79%
21:00 -4°C° 0 mm 6 mps 757 mmHg 80%
22:00 -4°C° 0 mm 6 mps 757 mmHg 81%
23:00 -4°C° 0 mm 5 mps 757 mmHg 81%

27 October, Tuesday

Time Temperature Precipitation Wind Pressure Humidity
00:00 -4°C° 0 mm 5 mps 758 mmHg 82%
01:00 -4°C° 0 mm 5 mps 758 mmHg 83%
02:00 -3°C° 0 mm 4 mps 758 mmHg 84%
03:00 -3°C° 0 mm 4 mps 759 mmHg 85%
04:00 -4°C° 0 mm 4 mps 759 mmHg 85%
05:00 -4°C° 0 mm 4 mps 760 mmHg 86%
06:00 -4°C° 0 mm 3 mps 760 mmHg 86%
07:00 -2°C° 0 mm 3 mps 760 mmHg 83%
08:00 -2°C° 0 mm 3 mps 761 mmHg 79%
09:00 -1°C° 0 mm 3 mps 761 mmHg 76%
10:00 0°C° 0 mm 3 mps 761 mmHg 70%
11:00 +1°C° 0 mm 3 mps 761 mmHg 64%
12:00 +2°C° 0 mm 3 mps 762 mmHg 59%
13:00 +2°C° 0 mm 3 mps 762 mmHg 60%
14:00 +2°C° 0 mm 3 mps 762 mmHg 61%
15:00 +3°C° 0 mm 2 mps 762 mmHg 62%
16:00 +2°C° 0 mm 2 mps 762 mmHg 65%
17:00 +1°C° 0 mm 2 mps 762 mmHg 68%
18:00 +1°C° 0 mm 2 mps 762 mmHg 70%
19:00 +1°C° 0 mm 2 mps 762 mmHg 71%
20:00 -1°C° 0 mm 2 mps 762 mmHg 71%
21:00 -1°C° 0 mm 2 mps 762 mmHg 72%
22:00 -1°C° 0 mm 2 mps 762 mmHg 72%
23:00 -1°C° 0 mm 3 mps 762 mmHg 73%

28 October, Wednesday

Time Temperature Precipitation Wind Pressure Humidity
00:00 -1°C° 0 mm 3 mps 761 mmHg 73%
01:00 -1°C° 0 mm 3 mps 761 mmHg 73%
02:00 -1°C° 0 mm 3 mps 761 mmHg 72%
03:00 -1°C° 0 mm 3 mps 761 mmHg 72%
04:00 -1°C° 0 mm 3 mps 761 mmHg 71%
05:00 -2°C° 0 mm 4 mps 761 mmHg 70%
06:00 -2°C° 0 mm 4 mps 761 mmHg 70%
07:00 -1°C° 0 mm 4 mps 761 mmHg 67%
08:00 0°C° 0 mm 4 mps 760 mmHg 64%
09:00 0°C° 0 mm 4 mps 760 mmHg 61%
10:00 +1°C° 0 mm 5 mps 760 mmHg 60%
11:00 +2°C° 0 mm 5 mps 760 mmHg 59%
12:00 +3°C° 0 mm 5 mps 760 mmHg 59%
13:00 +2°C° 0 mm 5 mps 759 mmHg 60%
14:00 +2°C° 0 mm 5 mps 759 mmHg 61%
15:00 +2°C° 0 mm 5 mps 759 mmHg 63%
16:00 +2°C° 0 mm 5 mps 759 mmHg 64%
17:00 +1°C° 0 mm 5 mps 759 mmHg 66%
18:00 +1°C° 0 mm 5 mps 759 mmHg 68%
19:00 +1°C° 0 mm 5 mps 758 mmHg 68%
20:00 0°C° 0 mm 5 mps 758 mmHg 68%
21:00 0°C° 0 mm 5 mps 758 mmHg 68%
22:00 0°C° 0 mm 5 mps 758 mmHg 69%
23:00 0°C° 0 mm 5 mps 757 mmHg 70%
Show more